Torna al catalogo

STARLINK-32334

AttivoComunicazioniVLEO
NORAD 62023·PAYLOAD·🇺🇸 United States

Lanciato Nov 18, 2024 da Vandenberg Space Force Base

Loading…

Prossimi Passaggi (prossime 24 ore)

TLE

AggiornatoSource: CelesTrak SupGP

Epoca: Sep 14, 2026, 20:48 UTC

1 62023C 24213R   26257.86715278  .00024970  00000+0  73797-3 0  2575
2 62023  53.1608   8.1281 0001208  81.6273  35.2400 15.34369286    18

Traccia STARLINK-32334 in tempo reale con AllMySat

Download on the App Store